Theta_e
304 304 304 304 304 304 305 305 305 305 305 305 305 305 305 306 306 306 308 309 310 310 310 310 309 307 307 311 312 313 311 309 309 309 310 312 316 314 314 315 315 314 315 317 316 315 315
304 304 304 305 305 305 305 305 305 305 305 304 305 305 305 305 305 305 307 308 307 308 308 310 309 307 307 311 312 312 310 309 309 309 310 312 314 314 315 316 315 316 316 315 315 316 316
305 305 304 304 304 304 304 304 304 304 303 303 303 304 304 304 304 304 305 307 306 307 308 309 309 307 307 308 311 310 308 309 310 309 309 314 312 312 316 315 316 316 315 313 315 316 315
304 304 303 303 303 303 303 303 303 303 303 303 303 303 303 303 303 304 304 306 306 307 307 309 308 307 308 312 311 310 308 309 310 310 309 311 311 312 316 316 316 316 315 313 314 313 313
304 303 303 303 303 303 303 303 303 304 304 304 304 304 304 304 304 304 304 305 306 309 309 309 308 308 309 311 310 308 308 311 312 311 312 313 312 317 318 316 312 314 313 310 311 313 313
305 305 304 303 304 304 304 305 305 305 305 305 305 305 305 305 304 304 304 304 307 309 309 309 309 310 310 311 311 311 311 312 311 314 314 315 316 315 314 312 309 309 310 310 311 313 312
306 305 305 305 305 305 305 305 305 305 305 305 306 306 306 306 306 305 304 304 305 310 307 306 308 312 311 311 310 309 310 310 312 313 313 317 312 314 313 315 312 311 311 310 310 312 311
307 306 305 303 302 302 303 303 303 303 303 303 303 304 305 306 306 305 304 304 303 304 309 306 307 309 311 311 310 310 311 311 313 313 313 311 311 310 311 311 311 311 311 310 310 311 311
306 303 301 300 299 300 300 300 300 300 301 301 302 302 302 302 306 306 306 305 303 307 310 310 312 311 310 310 310 310 311 311 312 312 312 311 311 311 311 311 312 310 310 310 310 310 310
300 298 298 298 298 298 298 299 299 299 299 300 301 301 302 301 306 306 308 305 303 308 310 314 311 311 310 310 310 312 311 313 312 311 311 310 311 312 311 311 310 310 310 312 311 309 309
296 297 297 296 296 297 297 297 297 298 299 299 300 300 299 300 300 305 307 305 304 313 302 310 311 311 312 311 311 311 312 312 311 312 311 309 311 311 311 311 309 310 310 310 310 310 310
296 295 295 295 295 295 296 296 297 298 299 299 300 299 299 299 299 303 305 305 311 307 301 313 311 312 311 311 311 312 311 311 311 311 310 310 311 310 310 311 311 310 310 310 309 309 310
295 294 294 294 294 295 295 296 297 298 299 299 299 299 298 298 302 304 305 309 306 302 307 311 312 311 311 312 311 311 311 311 309 309 310 311 311 311 311 310 311 310 309 310 311 312 313
293 293 293 294 294 294 295 296 297 298 298 299 299 299 300 300 299 299 304 306 305 307 309 308 307 307 311 312 310 312 312 310 309 310 309 308 310 310 309 310 311 309 308 310 313 309 307
293 293 294 295 294 294 295 296 297 297 298 299 299 301 302 302 300 301 311 305 305 308 308 308 307 306 308 307 309 310 310 310 309 309 311 309 309 309 309 309 310 310 309 309 309 308 307
294 298 295 292 292 293 294 295 296 297 298 298 298 304 301 303 303 306 306 308 308 308 308 308 307 305 305 305 305 304 307 307 308 307 307 309 308 308 308 309 309 310 309 311 308 310 313
299 294 292 293 294 294 294 294 296 297 297 298 300 306 303 303 306 310 304 306 308 307 307 308 307 307 306 306 306 305 304 305 305 307 306 307 307 307 308 309 309 309 308 309 309 308 310
294 296 297 295 293 293 293 294 294 296 297 298 302 304 303 302 308 307 305 307 307 307 306 306 306 306 306 306 306 306 305 306 307 306 307 305 306 306 307 307 307 309 308 308 309 309 306
297 297 297 294 292 291 292 292 293 294 294 298 303 303 304 304 303 301 302 304 304 306 305 306 306 304 305 306 306 305 305 306 306 306 306 305 306 305 305 307 307 307 307 307 307 307 307
296 297 295 291 290 290 291 292 293 293 294 299 301 299 301 304 301 299 297 299 303 303 304 305 305 304 302 304 303 304 304 305 304 306 307 306 304 305 304 305 307 307 308 308 308 307 307
294 292 291 290 290 289 289 290 291 291 294 299 297 297 295 293 296 296 296 298 299 301 299 301 303 301 301 301 299 301 299 298 300 302 304 304 305 305 305 305 306 307 307 307 307 306 307
291 290 291 291 289 289 290 290 291 291 292 294 296 295 296 295 297 295 295 296 298 297 296 298 297 296 295 296 296 295 295 296 297 296 298 301 306 306 305 305 306 307 307 306 306 306 306
289 289 289 289 290 293 292 291 291 291 292 293 293 294 295 295 293 293 293 294 295 295 295 295 295 295 294 294 294 294 294 294 294 294 295 296 302 303 303 303 303 305 304 305 306 303 304
290 291 292 293 292 291 293 292 291 291 291 292 292 294 294 293 292 292 293 293 293 293 294 293 294 294 295 294 294 293 293 292 292 292 294 295 297 299 300 303 300 302 300 302 301 299 300
294 294 294 292 290 290 291 291 291 291 291 291 292 292 292 291 292 293 293 293 293 293 293 294 294 293 294 294 291 292 291 291 292 292 292 293 294 296 299 300 299 300 296 296 300 297 296
292 291 290 289 289 288 288 289 291 291 291 291 292 292 293 292 292 292 292 293 291 291 292 294 292 293 294 293 292 293 293 293 293 292 297 295 294 295 296 298 298 293 294 294 298 299 294
288 288 289 290 292 290 288 289 290 289 292 291 292 292 293 292 292 293 292 291 292 292 292 292 293 293 293 293 293 293 293 294 294 293 292 295 295 295 295 296 295 292 293 297 299 294 293
290 291 292 292 292 290 288 291 292 292 292 291 292 291 292 292 291 292 292 292 292 292 292 292 292 292 294 294 294 293 292 294 293 292 292 292 292 296 294 298 299 292 292 293 292 291 290
289 289 290 290 291 289 291 291 290 291 292 292 291 291 291 292 291 291 292 292 292 293 292 292 293 293 293 294 294 293 293 290 290 290 291 291 292 292 292 292 290 289 289 287 286 286 287
Wind_Speed
8 8 8 7 7 7 8 9 10 11 12 12 12 13 13 14 15 15 14 13 15 15 14 11 7 5 5 5 7 6 5 4 5 6 5 6 6 4 3 5 6 4 4 7 9 16 16
7 7 6 6 8 9 9 9 9 10 11 12 13 13 14 15 16 16 15 14 15 17 15 12 8 6 4 4 6 6 6 5 5 5 3 3 1 3 4 4 1 2 9 17 11 8 8
6 4 7 7 7 7 8 9 9 10 11 12 13 14 15 16 16 17 15 16 17 16 13 9 6 6 7 9 8 5 6 6 6 6 2 4 4 3 3 4 3 5 6 8 6 8 5
4 5 5 5 6 7 8 9 11 12 13 14 14 15 15 16 17 18 17 17 19 13 12 6 3 5 5 6 9 9 8 8 6 5 4 5 6 4 4 6 4 2 2 4 3 8 2
4 4 6 8 9 10 11 12 13 13 14 15 15 16 17 17 18 19 18 19 17 14 5 1 4 4 5 5 8 7 8 3 5 7 4 4 2 2 2 2 4 2 4 4 7 10 4
7 7 8 9 10 12 13 14 14 15 16 17 17 17 17 18 18 18 17 18 14 10 2 4 4 3 5 3 4 5 6 8 6 3 5 1 1 1 1 3 4 4 3 4 5 3 5
11 12 13 13 13 14 16 16 17 18 18 19 19 19 17 17 18 19 16 13 8 3 11 12 13 5 3 8 6 6 7 6 4 3 3 4 2 7 9 9 4 2 2 6 8 4 4
11 13 13 14 14 15 16 18 18 19 20 20 20 20 18 17 16 14 11 5 6 9 15 15 15 19 16 8 3 7 9 7 6 5 4 1 8 8 6 3 4 3 3 8 9 5 2
11 12 13 14 16 17 17 18 18 18 19 19 18 17 16 14 13 9 10 9 10 10 5 7 1 1 3 12 6 9 11 5 7 4 5 6 5 6 4 3 4 5 5 5 6 5 4
11 11 12 13 14 15 17 18 18 18 19 20 20 19 17 12 4 5 6 10 10 9 4 4 2 2 0 3 3 5 10 3 3 4 5 7 5 7 6 6 7 5 5 3 2 4 3
11 11 12 13 14 15 15 16 17 18 18 19 20 18 15 10 6 1 4 6 7 3 5 2 2 3 1 2 2 4 8 3 4 2 2 8 3 4 6 7 8 8 1 4 4 3 2
10 11 12 12 13 14 15 16 17 18 17 17 18 17 12 8 5 3 3 4 2 6 5 1 3 1 1 5 3 5 3 6 4 3 4 9 2 5 7 3 4 1 3 4 3 4 1
10 10 11 12 12 13 14 15 17 18 18 19 18 16 11 7 4 2 2 1 5 4 4 2 2 2 3 4 5 7 5 5 5 3 3 5 5 4 3 1 1 3 4 3 3 1 6
9 9 11 12 13 15 16 17 17 19 19 19 17 12 10 8 5 2 3 4 3 4 4 5 6 7 5 3 5 5 3 3 7 6 2 3 7 7 3 6 5 5 6 5 5 4 4
8 9 12 14 16 18 19 18 18 18 17 16 12 8 14 11 4 5 2 3 6 1 3 7 8 5 3 4 3 3 7 5 5 9 8 2 5 0 3 1 2 3 3 3 1 1 2
9 12 14 18 19 19 20 20 19 18 18 15 9 5 13 10 3 4 4 3 2 3 4 3 2 3 4 5 6 6 3 2 4 5 2 3 5 3 2 0 1 3 1 1 2 2 4
9 13 16 17 19 20 20 20 21 18 18 13 4 3 11 7 2 1 2 4 2 4 8 3 3 5 4 5 5 3 7 3 5 6 6 2 3 3 3 5 7 2 3 4 3 4 4
10 13 14 17 20 21 20 20 20 22 17 12 3 3 11 5 2 1 1 1 2 3 5 3 4 5 5 3 5 5 7 2 9 4 3 4 2 5 9 4 1 4 6 7 4 5 4
9 11 14 17 20 22 21 21 20 19 19 14 4 4 8 10 3 3 7 5 3 1 2 4 4 5 5 3 5 3 3 4 13 4 2 4 3 4 7 2 2 2 4 4 2 1 5
10 11 14 17 21 22 23 21 19 17 15 7 4 4 5 7 7 4 5 5 4 11 3 4 4 6 5 3 4 6 8 3 13 5 5 2 3 5 7 4 3 5 5 3 3 2 2
9 12 14 16 19 20 22 23 23 20 15 4 6 4 5 4 5 7 4 4 6 6 14 12 4 11 6 5 6 5 7 9 10 16 8 1 5 6 10 8 7 13 12 6 6 6 6
9 11 13 15 17 18 21 24 26 25 17 14 6 7 8 8 11 6 6 6 9 8 8 7 7 11 9 8 8 10 7 4 6 9 7 6 4 3 5 6 10 16 14 9 14 12 14
8 10 12 14 15 16 19 21 24 27 24 13 11 11 4 6 10 4 4 7 10 12 7 9 16 10 11 11 11 19 24 22 22 15 7 5 3 4 6 3 6 7 8 14 5 10 4
8 10 11 13 14 15 16 17 19 21 22 19 15 8 5 3 5 3 12 16 12 16 11 19 22 10 13 20 26 27 29 31 31 25 24 8 2 3 4 2 4 1 17 15 19 14 13
7 8 8 10 12 12 13 14 15 16 16 17 14 10 4 2 4 6 16 10 16 19 17 19 9 16 23 16 5 7 6 4 6 11 13 16 9 3 3 7 8 5 10 8 7 8 14
5 7 8 11 12 13 13 11 11 12 12 12 12 10 5 1 2 16 6 7 7 4 5 10 29 21 20 2 3 5 5 9 5 9 5 10 16 8 3 4 4 8 17 26 6 3 16
6 7 8 10 11 13 14 10 10 11 11 12 9 11 6 4 7 6 6 7 9 7 4 11 7 17 20 4 4 5 5 7 4 5 7 6 3 11 9 4 4 14 17 13 3 5 17
6 7 7 8 9 13 11 9 11 11 11 12 13 11 8 6 24 9 10 14 19 13 5 16 10 2 3 3 2 3 2 3 4 5 2 4 5 4 4 7 2 25 8 7 5 15 19
6 6 7 9 10 10 9 11 12 12 11 12 14 12 13 12 23 25 19 13 16 18 17 5 6 6 4 4 1 3 3 3 3 3 4 3 3 3 4 4 8 16 16 14 21 19 22
Wind_Direction
75 68 63 55 45 38 32 23 19 12 11 9 6 4 3 1 360 357 352 346 339 333 327 318 309 297 282 255 250 255 266 292 326 342 3 24 30 6 333 331 348 194 276 292 269 289 284
74 65 57 41 33 25 19 15 7 4 1 358 358 356 354 353 352 351 348 344 339 333 325 315 306 293 258 256 252 244 255 277 317 331 345 359 351 310 279 262 205 269 289 283 288 264 242
62 50 35 31 24 14 6 0 356 354 351 349 348 348 346 346 344 344 341 338 335 334 329 312 299 280 263 258 264 257 261 267 304 313 307 297 291 272 312 286 306 281 311 320 238 234 234
46 36 20 10 2 354 350 346 349 348 344 342 342 342 341 340 338 339 337 334 331 329 323 301 272 265 248 256 258 263 251 259 295 301 289 284 292 283 244 295 299 250 192 335 250 152 212
24 1 354 353 351 346 344 343 343 341 337 335 335 336 336 337 336 337 335 333 329 327 324 286 291 267 276 243 244 242 235 230 295 314 322 308 307 271 252 352 350 265 257 251 325 192 157
9 2 352 344 343 341 336 335 334 331 329 328 328 329 331 331 333 334 337 336 325 323 303 325 241 287 243 274 258 238 210 213 246 314 312 181 206 278 286 115 232 242 273 287 249 235 211
2 355 347 342 342 337 334 331 331 331 328 327 326 325 327 326 330 335 341 349 346 315 304 251 281 238 208 229 242 220 220 221 202 217 235 203 89 222 225 209 227 216 238 255 270 212 238
355 349 340 337 336 335 331 330 331 329 328 329 328 325 324 322 327 333 346 33 18 315 305 300 271 253 252 232 260 208 208 193 180 211 162 16 241 226 209 173 208 225 263 269 278 182 252
347 343 339 339 339 334 331 330 331 331 328 325 325 326 331 329 327 328 356 13 353 337 295 312 273 244 257 237 245 228 204 209 208 225 212 192 238 153 205 242 225 233 211 251 230 320 300
344 343 338 336 333 334 334 333 333 335 332 328 324 322 321 333 325 325 336 347 343 339 40 279 33 69 231 163 246 216 198 237 258 244 234 232 243 223 205 248 180 261 204 216 288 58 253
341 345 346 344 343 343 343 343 344 347 346 343 341 340 328 327 301 304 308 323 332 0 7 271 127 145 172 227 289 190 202 223 239 247 66 252 200 213 228 227 169 234 175 208 199 188 29
355 351 350 351 352 351 350 349 349 353 353 346 344 345 345 332 318 305 298 300 327 47 259 134 129 158 245 201 226 164 180 218 261 286 222 242 217 201 218 252 220 43 345 322 98 118 355
357 0 360 356 355 355 356 356 355 355 357 350 348 349 358 351 323 295 285 293 43 127 314 19 56 187 222 226 218 182 179 188 195 347 278 311 218 210 176 274 223 93 66 315 344 15 225
7 5 0 359 2 5 8 4 1 356 356 352 350 5 21 8 341 237 180 54 127 243 299 13 5 297 227 255 255 186 202 268 235 204 258 205 315 165 170 202 196 182 178 167 226 218 237
22 16 12 8 8 5 3 3 2 359 355 354 351 4 21 7 3 164 138 72 207 273 339 345 333 311 271 39 301 316 214 229 244 187 185 219 265 6 163 311 150 213 186 197 212 326 79
29 19 11 5 5 6 3 359 360 359 353 356 349 18 17 9 34 148 78 222 213 36 5 349 275 286 304 333 344 8 278 315 349 45 302 269 291 206 242 47 235 188 256 94 13 256 253
28 8 5 10 10 8 5 360 356 2 357 354 354 66 11 7 97 352 141 233 327 5 19 338 306 302 296 316 244 269 265 352 356 326 347 318 191 277 110 207 201 130 233 211 170 162 216
6 15 20 10 7 5 2 3 360 353 6 2 14 53 9 6 352 290 238 177 326 329 10 302 274 252 256 314 283 249 240 255 357 320 316 3 248 246 223 253 207 180 206 180 171 252 226
31 26 16 5 4 2 2 5 3 2 0 6 13 349 22 2 73 340 328 323 316 276 49 343 311 35 346 327 326 290 314 73 15 21 65 338 275 300 324 346 332 211 200 210 228 107 217
36 27 12 4 2 3 4 7 9 10 7 11 12 22 15 52 48 47 2 298 326 347 359 344 307 331 349 315 239 293 308 12 342 331 311 195 253 219 233 266 1 260 241 253 178 166 240
21 9 5 7 11 10 10 14 14 17 20 52 46 46 22 331 359 349 340 286 307 348 7 2 325 21 357 305 319 280 359 330 322 313 323 225 253 225 271 286 274 272 267 253 248 225 225
17 11 16 15 14 14 16 17 19 22 28 53 59 12 360 324 327 353 341 12 34 357 4 324 341 352 351 320 302 311 337 348 259 335 339 331 270 300 282 288 276 272 276 253 244 257 260
22 18 18 18 19 21 19 21 25 27 30 61 54 51 12 351 351 14 29 334 326 331 314 340 330 322 315 299 306 297 284 262 254 263 260 286 296 355 271 333 304 287 266 246 233 39 317
33 29 21 18 15 19 20 20 22 30 39 45 39 37 32 327 5 7 351 348 344 333 318 326 326 296 297 313 312 300 278 256 251 249 235 242 221 208 274 332 249 266 27 89 83 53 39
34 20 359 354 358 6 10 11 16 23 28 30 30 30 43 307 290 331 341 318 327 336 322 302 316 328 313 324 315 301 287 298 266 235 228 215 211 254 232 211 276 356 4 319 339 55 21
7 356 350 354 2 6 1 0 5 9 16 12 18 16 13 286 247 315 289 314 311 300 309 304 318 318 331 347 256 269 302 302 300 330 27 229 204 194 179 220 242 357 330 324 243 89 346
3 3 3 6 5 3 0 7 8 3 4 355 7 352 337 289 284 296 301 303 289 297 278 294 335 318 313 221 260 271 277 326 323 26 331 350 3 230 227 255 110 2 355 357 71 330 350
19 11 3 356 346 355 3 7 1 356 356 346 336 350 346 292 292 300 321 285 294 291 278 291 311 334 328 304 270 317 273 203 213 244 253 313 313 3 330 220 239 7 4 50 3 12 14
14 9 352 341 343 353 2 354 349 346 348 341 328 342 322 286 287 306 302 291 294 292 270 239 250 278 260 266 263 259 303 326 5 311 340 13 14 288 257 297 69 19 66 32 15 354 339